{"data":{"norad_id":68851,"intl_designator":"2026-094N","name":"STARLINK-37382","alt_names":[],"object_type":"PAYLOAD","status":"ACTIVE","operator":null,"country":"US","launch_date":"2026-04-26","launch_site_code":"AFWTR","launch_vehicle":null,"mission":null,"orbit_class":"UNKNOWN","rcs_meters":null,"size_class":null,"mass_kg":null,"dimensions":null,"purposes":["comms"],"wikipedia_slug":null,"has_3d_model":false,"image_url":null,"decayed_at":null,"tle_current":{"epoch":"2026-05-25T04:00:03.998880Z","epoch_age_seconds":54584,"freshness":"FRESH","line1":"1 68851U 26094N   26145.16671295 -.00006821  00000+0 -12392-3 0  9992","line2":"2 68851  97.2851 159.8600 0000748  95.3407 330.4246 15.49177239  5676","mean_motion":15.49177239,"eccentricity":7.48e-5,"inclination_deg":97.2851,"raan_deg":159.86,"arg_perigee_deg":95.3407,"mean_anomaly_deg":330.4246,"bstar":-0.00012392,"rev_number":567,"period_min":92.952566287995,"perigee_km":418.62323457424,"apogee_km":419.64010596731,"semimajor_km":6797.2686702708,"source":"CELESTRAK","updated_at":"2026-05-25T13:38:22.048127Z"}}}